Regional Weather Roundup
Issued by NWS

Home | Current Version | Previous Version | Text Only | Print | Product List | Glossary On
Versions: 1 2 3 4 5 6 7 8 9 10 11 12 13 14 15 16 17 18 19 20 21 22 23 24 25 26 27 28 29 30 31 32 33 34 35 36 37 38 39 40 41 42 43 44 45 46 47 48 49 50
000
ASUS45 KBOI 032310
RWRID
WEATHER ROUNDUP FOR IDAHO
NATIONAL WEATHER SERVICE BOISE ID
500 PM MDT SUN MAY 03 2015

NOTE: "FAIR" INDICATES FEW OR NO CLOUDS BELOW 12000 FEET
WITH NO SIGNIFICANT WEATHER AND/OR OBSTRUCTIONS TO VISIBILITY

IDZ012-014-040000-
SOUTHWEST IDAHO


CITY           SKY/WX    TMP DP  RH WIND       PRES   REMARKS
BOISE          SUNNY     79  29  16 NW16      29.81F
CALDWELL       SUNNY     77  34  20 NW9       29.82F
MOUNTAIN HOME  SUNNY     79  28  15 VRB6      29.80F
$$

IDZ016-017-040000-
SOUTHCENTRAL IDAHO


CITY           SKY/WX    TMP DP  RH WIND       PRES   REMARKS
BURLEY         PTSUNNY   71  38  29 S15       29.84F
JEROME         MOSUNNY   75  30  19 VRB7      29.84F
TWIN FALLS     MOSUNNY   77  32  19 VRB5      29.84F
$$

IDZ019>023-040000-
SOUTHEAST IDAHO


CITY           SKY/WX    TMP DP  RH WIND       PRES   REMARKS
IDAHO FALLS    LGT RAIN  62  39  42 VRB3      29.91F
POCATELLO      TSTM      67  39  35 S13       29.88R
REXBURG        PTSUNNY   65  38  36 VRB6      29.92R
$$

IDZ006-010-011-018-031-032-040000-
CENTRAL IDAHO MOUNTAINS


CITY           SKY/WX    TMP DP  RH WIND       PRES   REMARKS
MCCALL         PTSUNNY   65  19  17 SW8       29.90F
HAILEY         PTSUNNY   72  34  25 N16G25    29.89F
STANLEY          N/A     64  27  24 S8G17     29.96F
SALMON         PTSUNNY   70  25  18 CALM      29.84S
CHALLIS        PTSUNNY   72  22  15 W6        29.87F
$$

IDZ002-004-006-007-026-040000-
NORTHERN IDAHO


CITY           SKY/WX    TMP DP  RH WIND       PRES   REMARKS
LEWISTON       SUNNY     74  23  15 VRB3      29.86F
LOWELL           N/A     76  32  20 SE7       29.82F
COEUR D`ALENE  SUNNY     66  25  20 W3        29.92F
MULLAN PASS    SUNNY     55  16  21 VRB5      29.98F
$$


USA.gov is the U.S. government's official web portal to all federal, state and local government web resources and services.